| time (UTC) | temp F | wind direction | speed MPH | gust MPH | rain 1hr in | rain 24hr in | rain mn in | humidity % | barometer mb |
| 20260504060218 | 55 | 194 | 2.0 | 4.0 | 0.00 | 0.00 | 0.00 | 76 | 1004.3 |
| 20260504050646 | 55 | 218 | 2.0 | 5.0 | 0.00 | 0.00 | 0.00 | 75 | 1004.9 |
| 20260504050143 | 55 | 192 | 2.0 | 3.0 | 0.00 | 0.00 | 0.00 | 75 | 1004.6 |
| 20260504045640 | 55 | 195 | 2.0 | 4.0 | 0.00 | 0.02 | 0.02 | 75 | 1004.5 |
| 20260504045140 | 55 | 192 | 3.0 | 3.0 | 0.00 | 0.02 | 0.02 | 75 | 1004.6 |
| 20260504044638 | 55 | 196 | 2.0 | 4.0 | 0.00 | 0.02 | 0.02 | 75 | 1004.5 |
| 20260504044135 | 55 | 176 | 2.0 | 4.0 | 0.00 | 0.02 | 0.02 | 75 | 1004.7 |
| 20260504043632 | 55 | 206 | 2.0 | 4.0 | 0.00 | 0.02 | 0.02 | 75 | 1004.7 |
| 20260504043129 | 56 | 194 | 1.0 | 4.0 | 0.00 | 0.02 | 0.02 | 75 | 1004.6 |
| 20260504042626 | 56 | 200 | 3.0 | 4.0 | 0.00 | 0.02 | 0.02 | 75 | 1004.7 |
| 20260504042123 | 56 | 199 | 2.0 | 4.0 | 0.00 | 0.02 | 0.02 | 75 | 1004.5 |
| 20260504041619 | 56 | 195 | 1.0 | 4.0 | 0.00 | 0.02 | 0.02 | 74 | 1004.8 |
| 20260504041115 | 56 | 198 | 3.0 | 3.0 | 0.00 | 0.02 | 0.02 | 74 | 1004.8 |
| 20260504040613 | 56 | 209 | 0.0 | 4.0 | 0.00 | 0.02 | 0.02 | 73 | 1004.8 |
| 20260504040109 | 57 | 195 | 2.0 | 4.0 | 0.00 | 0.02 | 0.02 | 72 | 1004.9 |
| 20260504035606 | 57 | 198 | 3.0 | 4.0 | 0.00 | 0.02 | 0.02 | 72 | 1004.9 |
| 20260504035102 | 57 | 199 | 2.0 | 4.0 | 0.00 | 0.02 | 0.02 | 72 | 1004.8 |
| 20260504034600 | 57 | 192 | 4.0 | 4.0 | 0.00 | 0.02 | 0.02 | 71 | 1005.1 |
| 20260504034057 | 57 | 191 | 0.0 | 5.0 | 0.00 | 0.02 | 0.02 | 71 | 1005.0 |
| 20260504033555 | 57 | 203 | 2.0 | 4.0 | 0.00 | 0.02 | 0.02 | 71 | 1004.9 |
| 20260504033052 | 57 | 209 | 3.0 | 4.0 | 0.00 | 0.02 | 0.02 | 71 | 1005.0 |
| 20260504032549 | 57 | 199 | 2.0 | 4.0 | 0.00 | 0.02 | 0.02 | 71 | 1005.0 |
| 20260504032046 | 57 | 194 | 2.0 | 3.0 | 0.00 | 0.02 | 0.02 | 71 | 1005.2 |
| 20260504031543 | 57 | 195 | 2.0 | 3.0 | 0.00 | 0.02 | 0.02 | 71 | 1005.2 |
| 20260504031039 | 57 | 208 | 2.0 | 3.0 | 0.00 | 0.02 | 0.02 | 72 | 1005.1 |
| 20260504030536 | 57 | 200 | 0.0 | 2.0 | 0.00 | 0.02 | 0.02 | 71 | 1005.1 |
| 20260504030032 | 57 | 180 | 2.0 | 3.0 | 0.00 | 0.02 | 0.02 | 71 | 1005.2 |
| 20260504025530 | 57 | 191 | 1.0 | 2.0 | 0.00 | 0.02 | 0.02 | 71 | 1005.3 |
| 20260504025026 | 57 | 196 | 0.0 | 2.0 | 0.00 | 0.02 | 0.02 | 70 | 1005.2 |
| 20260504024523 | 57 | 209 | 0.0 | 2.0 | 0.00 | 0.02 | 0.02 | 70 | 1005.1 |
| 20260504024020 | 58 | 188 | 0.0 | 2.0 | 0.00 | 0.02 | 0.02 | 69 | 1005.0 |
| 20260504023517 | 58 | 199 | 0.0 | 2.0 | 0.00 | 0.02 | 0.02 | 68 | 1005.1 |
| 20260504023013 | 58 | 192 | 2.0 | 4.0 | 0.00 | 0.02 | 0.02 | 67 | 1005.2 |
| 20260504022508 | 59 | 180 | 1.0 | 3.0 | 0.00 | 0.02 | 0.02 | 67 | 1005.1 |
| 20260504022005 | 59 | 204 | 2.0 | 3.0 | 0.00 | 0.02 | 0.02 | 66 | 1005.1 |
| 20260504021503 | 59 | 202 | 3.0 | 4.0 | 0.00 | 0.02 | 0.02 | 66 | 1005.1 |
| 20260504021000 | 59 | 193 | 3.0 | 4.0 | 0.00 | 0.02 | 0.02 | 66 | 1005.0 |
| 20260504020456 | 60 | 199 | 3.0 | 4.0 | 0.00 | 0.02 | 0.02 | 65 | 1005.0 |
| 20260504015953 | 60 | 187 | 0.0 | 3.0 | 0.00 | 0.02 | 0.02 | 64 | 1004.7 |
| 20260504015449 | 60 | 180 | 4.0 | 6.0 | 0.00 | 0.02 | 0.02 | 63 | 1005.0 |
| 20260504014945 | 60 | 211 | 3.0 | 5.0 | 0.00 | 0.02 | 0.02 | 64 | 1004.6 |
| 20260504014441 | 61 | 188 | 2.0 | 7.0 | 0.00 | 0.02 | 0.02 | 63 | 1004.7 |
| 20260504013938 | 61 | 197 | 3.0 | 4.0 | 0.00 | 0.02 | 0.02 | 63 | 1004.8 |
| 20260504013437 | 61 | 199 | 0.0 | 4.0 | 0.00 | 0.02 | 0.02 | 62 | 1004.6 |
| 20260504012932 | 62 | 201 | 2.0 | 4.0 | 0.00 | 0.02 | 0.02 | 61 | 1004.8 |
| 20260504012431 | 62 | 205 | 3.0 | 7.0 | 0.00 | 0.02 | 0.02 | 60 | 1004.9 |
| 20260504011928 | 62 | 192 | 1.0 | 6.0 | 0.00 | 0.02 | 0.02 | 60 | 1004.8 |
| 20260504011425 | 63 | 201 | 0.0 | 5.0 | 0.00 | 0.02 | 0.02 | 59 | 1004.7 |
| 20260504010920 | 63 | 195 | 0.0 | 5.0 | 0.00 | 0.02 | 0.02 | 59 | 1004.7 |
| 20260504010417 | 63 | 197 | 4.0 | 6.0 | 0.00 | 0.02 | 0.02 | 58 | 1004.6 |
| 20260504005913 | 64 | 195 | 2.0 | 8.0 | 0.00 | 0.02 | 0.02 | 57 | 1004.8 |
| 20260504005410 | 64 | 202 | 4.0 | 8.0 | 0.00 | 0.02 | 0.02 | 57 | 1004.6 |
| 20260504004908 | 64 | 200 | 5.0 | 7.0 | 0.00 | 0.02 | 0.02 | 56 | 1004.4 |
| 20260504004405 | 65 | 197 | 4.0 | 7.0 | 0.00 | 0.02 | 0.02 | 55 | 1004.6 |
| 20260504003902 | 65 | 212 | 2.0 | 11.0 | 0.00 | 0.02 | 0.02 | 56 | 1004.6 |
| 20260504003358 | 65 | 195 | 3.0 | 7.0 | 0.00 | 0.02 | 0.02 | 56 | 1004.8 |
| 20260504002855 | 66 | 201 | 8.0 | 8.0 | 0.00 | 0.02 | 0.02 | 55 | 1004.5 |
| 20260504002352 | 66 | 234 | 3.0 | 8.0 | 0.00 | 0.02 | 0.02 | 54 | 1004.8 |
| 20260504001849 | 67 | 109 | 1.0 | 7.0 | 0.00 | 0.02 | 0.02 | 54 | 1004.7 |
| 20260504001346 | 67 | 194 | 3.0 | 4.0 | 0.00 | 0.02 | 0.02 | 53 | 1004.7 |
| 20260504000843 | 68 | 199 | 4.0 | 11.0 | 0.00 | 0.02 | 0.02 | 53 | 1004.6 |
| 20260504000340 | 68 | 183 | 3.0 | 10.0 | 0.00 | 0.02 | 0.02 | 51 | 1004.7 |
| 20260503235838 | 68 | 190 | 6.0 | 10.0 | 0.00 | 0.02 | 0.02 | 51 | 1004.6 |
| 20260503235335 | 68 | 193 | 6.0 | 11.0 | 0.00 | 0.02 | 0.02 | 50 | 1004.8 |
| 20260503234832 | 69 | 255 | 2.0 | 8.0 | 0.00 | 0.02 | 0.02 | 50 | 1004.7 |
| 20260503234330 | 69 | 166 | 4.0 | 14.0 | 0.00 | 0.02 | 0.02 | 49 | 1005.1 |
| 20260503233828 | 69 | 267 | 8.0 | 11.0 | 0.00 | 0.02 | 0.02 | 49 | 1005.0 |
| 20260503233323 | 69 | 189 | 4.0 | 15.0 | 0.00 | 0.02 | 0.02 | 48 | 1004.6 |
| 20260503232820 | 70 | 185 | 2.0 | 8.0 | 0.00 | 0.02 | 0.02 | 48 | 1004.6 |
| 20260503232318 | 70 | 183 | 3.0 | 13.0 | 0.00 | 0.02 | 0.02 | 47 | 1005.0 |
| 20260503231815 | 70 | 197 | 7.0 | 10.0 | 0.00 | 0.02 | 0.02 | 47 | 1004.9 |
| 20260503231312 | 70 | 194 | 3.0 | 10.0 | 0.00 | 0.02 | 0.02 | 47 | 1004.8 |
| 20260503230808 | 70 | 267 | 0.0 | 13.0 | 0.00 | 0.02 | 0.02 | 46 | 1004.8 |
| 20260503230305 | 70 | 205 | 3.0 | 9.0 | 0.00 | 0.02 | 0.02 | 46 | 1005.0 |
| 20260503225803 | 70 | 198 | 7.0 | 12.0 | 0.00 | 0.02 | 0.02 | 46 | 1005.0 |
| 20260503225258 | 70 | 192 | 7.0 | 7.0 | 0.00 | 0.02 | 0.02 | 46 | 1004.9 |
| 20260503224755 | 70 | 197 | 6.0 | 7.0 | 0.00 | 0.02 | 0.02 | 46 | 1004.9 |
| 20260503224253 | 70 | 199 | 9.0 | 11.0 | 0.00 | 0.02 | 0.02 | 47 | 1005.0 |
| 20260503223750 | 70 | 203 | 0.0 | 9.0 | 0.00 | 0.02 | 0.02 | 47 | 1005.1 |
| 20260503223248 | 71 | 202 | 6.0 | 11.0 | 0.00 | 0.02 | 0.02 | 45 | 1005.1 |
| 20260503222743 | 71 | 208 | 6.0 | 14.0 | 0.00 | 0.02 | 0.02 | 45 | 1005.1 |
| 20260503222242 | 70 | 201 | 7.0 | 11.0 | 0.00 | 0.02 | 0.02 | 45 | 1005.2 |
| 20260503221740 | 71 | 180 | 3.0 | 12.0 | 0.00 | 0.02 | 0.02 | 45 | 1005.2 |
| 20260503221237 | 71 | 219 | 3.0 | 14.0 | 0.00 | 0.02 | 0.02 | 46 | 1005.3 |
| 20260503220733 | 71 | 49 | 2.0 | 14.0 | 0.00 | 0.02 | 0.02 | 45 | 1005.2 |
| 20260503220231 | 71 | 213 | 0.0 | 16.0 | 0.00 | 0.02 | 0.02 | 45 | 1005.2 |
| 20260503215727 | 71 | 197 | 3.0 | 13.0 | 0.00 | 0.02 | 0.02 | 43 | 1005.4 |
| 20260503215224 | 70 | 90 | 0.0 | 8.0 | 0.00 | 0.02 | 0.02 | 44 | 1005.3 |
| 20260503214722 | 68 | 193 | 9.0 | 9.0 | 0.00 | 0.02 | 0.02 | 47 | 1005.5 |
| 20260503214219 | 69 | 202 | 5.0 | 10.0 | 0.00 | 0.02 | 0.02 | 45 | 1005.7 |
| 20260503213717 | 69 | 206 | 7.0 | 13.0 | 0.00 | 0.02 | 0.02 | 45 | 1005.4 |
| 20260503213214 | 68 | 241 | 2.0 | 7.0 | 0.00 | 0.02 | 0.02 | 47 | 1005.6 |
| 20260503212711 | 67 | 190 | 3.0 | 16.0 | 0.00 | 0.02 | 0.02 | 47 | 1005.7 |
| 20260503212209 | 68 | 209 | 7.0 | 16.0 | 0.00 | 0.02 | 0.02 | 47 | 1005.5 |
| 20260503211706 | 69 | 192 | 2.0 | 16.0 | 0.00 | 0.02 | 0.02 | 45 | 1005.5 |
| 20260503211202 | 68 | 190 | 7.0 | 15.0 | 0.00 | 0.02 | 0.02 | 46 | 1005.7 |
| 20260503210658 | 67 | 208 | 7.0 | 13.0 | 0.00 | 0.02 | 0.02 | 48 | 1005.9 |
| 20260503210155 | 67 | 205 | 6.0 | 14.0 | 0.00 | 0.02 | 0.02 | 46 | 1005.9 |
| 20260503205650 | 69 | 198 | 3.0 | 14.0 | 0.00 | 0.02 | 0.02 | 45 | 1006.0 |
| 20260503205146 | 69 | 185 | 6.0 | 21.0 | 0.00 | 0.02 | 0.02 | 46 | 1006.0 |
| 20260503204643 | 68 | 194 | 10.0 | 19.0 | 0.00 | 0.02 | 0.02 | 45 | 1006.2 |
| 20260503204141 | 67 | 198 | 8.0 | 15.0 | 0.00 | 0.02 | 0.02 | 47 | 1006.2 |
| 20260503203638 | 66 | 190 | 5.0 | 16.0 | 0.00 | 0.02 | 0.02 | 48 | 1006.6 |
| 20260503203136 | 66 | 189 | 2.0 | 12.0 | 0.00 | 0.02 | 0.02 | 48 | 1006.6 |
| 20260503202633 | 65 | 207 | 7.0 | 16.0 | 0.00 | 0.02 | 0.02 | 47 | 1006.6 |
| 20260503202131 | 66 | 200 | 10.0 | 22.0 | 0.00 | 0.02 | 0.02 | 46 | 1006.6 |
| 20260503201628 | 67 | 199 | 5.0 | 20.0 | 0.00 | 0.02 | 0.02 | 47 | 1007.3 |
| 20260503201126 | 66 | 200 | 11.0 | 22.0 | 0.00 | 0.02 | 0.02 | 45 | 1007.0 |
| 20260503200621 | 66 | 210 | 7.0 | 15.0 | 0.00 | 0.02 | 0.02 | 44 | 1007.2 |
| 20260503200118 | 68 | 198 | 9.0 | 15.0 | 0.00 | 0.02 | 0.02 | 44 | 1007.1 |
| 20260503195615 | 67 | 201 | 16.0 | 16.0 | 0.00 | 0.02 | 0.02 | 44 | 1007.1 |
| 20260503195112 | 66 | 218 | 7.0 | 17.0 | 0.00 | 0.02 | 0.02 | 46 | 1007.3 |
| 20260503194609 | 65 | 196 | 7.0 | 19.0 | 0.00 | 0.02 | 0.02 | 46 | 1007.2 |
| 20260503194104 | 65 | 197 | 13.0 | 23.0 | 0.00 | 0.02 | 0.02 | 45 | 1007.3 |
| 20260503193601 | 64 | 207 | 3.0 | 17.0 | 0.00 | 0.02 | 0.02 | 46 | 1007.5 |
| 20260503193056 | 65 | 196 | 8.0 | 26.0 | 0.00 | 0.02 | 0.02 | 45 | 1007.3 |
| 20260503192553 | 66 | 238 | 3.0 | 21.0 | 0.00 | 0.02 | 0.02 | 46 | 1007.6 |
| 20260503192048 | 66 | 197 | 14.0 | 21.0 | 0.00 | 0.02 | 0.02 | 47 | 1007.5 |
| 20260503191545 | 66 | 197 | 14.0 | 17.0 | 0.00 | 0.02 | 0.02 | 47 | 1007.6 |
| 20260503191042 | 65 | 192 | 5.0 | 24.0 | 0.00 | 0.02 | 0.02 | 47 | 1007.4 |
| 20260503190539 | 65 | 201 | 13.0 | 17.0 | 0.00 | 0.02 | 0.02 | 49 | 1007.5 |
| 20260503190037 | 65 | 197 | 9.0 | 20.0 | 0.00 | 0.02 | 0.02 | 48 | 1007.7 |
| 20260503185533 | 65 | 197 | 13.0 | 19.0 | 0.00 | 0.02 | 0.02 | 49 | 1007.8 |
| 20260503185032 | 65 | 202 | 11.0 | 21.0 | 0.00 | 0.02 | 0.02 | 52 | 1007.7 |
| 20260503184529 | 63 | 229 | 5.0 | 18.0 | 0.00 | 0.02 | 0.02 | 53 | 1008.0 |
| 20260503184026 | 63 | 188 | 4.0 | 16.0 | 0.00 | 0.02 | 0.02 | 54 | 1008.3 |
| 20260503183522 | 63 | 217 | 15.0 | 22.0 | 0.00 | 0.02 | 0.02 | 54 | 1008.3 |
| 20260503183019 | 64 | 184 | 4.0 | 13.0 | 0.00 | 0.02 | 0.02 | 60 | 1008.5 |
| 20260503182518 | 62 | 226 | 5.0 | 12.0 | 0.00 | 0.02 | 0.02 | 60 | 1008.6 |
| 20260503182015 | 62 | 194 | 9.0 | 15.0 | 0.00 | 0.02 | 0.02 | 60 | 1008.6 |
| 20260503181512 | 61 | 218 | 5.0 | 14.0 | 0.00 | 0.02 | 0.02 | 62 | 1008.9 |
| 20260503181008 | 61 | 193 | 5.0 | 10.0 | 0.00 | 0.02 | 0.02 | 64 | 1009.0 |
| 20260503180506 | 60 | 180 | 0.0 | 11.0 | 0.00 | 0.02 | 0.02 | 63 | 1009.5 |
| 20260503180003 | 59 | 341 | 3.0 | 16.0 | 0.00 | 0.02 | 0.02 | 65 | 1009.4 |
| 20260503175501 | 59 | 139 | 2.0 | 12.0 | 0.00 | 0.02 | 0.02 | 65 | 1009.6 |
| 20260503174956 | 57 | 191 | 5.0 | 16.0 | 0.00 | 0.02 | 0.02 | 66 | 1009.7 |
| 20260503174455 | 55 | 117 | 0.0 | 10.0 | 0.00 | 0.02 | 0.02 | 70 | 1010.1 |
| 20260503173950 | 55 | 200 | 7.0 | 12.0 | 0.00 | 0.02 | 0.02 | 69 | 1010.3 |
| 20260503173446 | 55 | 191 | 5.0 | 13.0 | 0.00 | 0.02 | 0.02 | 71 | 1010.7 |
| 20260503172943 | 55 | 200 | 8.0 | 9.0 | 0.00 | 0.02 | 0.02 | 72 | 1010.7 |
| 20260503172440 | 55 | 29 | 2.0 | 13.0 | 0.00 | 0.02 | 0.02 | 72 | 1010.8 |
| 20260503171937 | 54 | 185 | 3.0 | 7.0 | 0.00 | 0.02 | 0.02 | 72 | 1011.2 |
| 20260503171433 | 54 | 196 | 7.0 | 7.0 | 0.00 | 0.02 | 0.02 | 73 | 1011.0 |
| 20260503170931 | 53 | 106 | 3.0 | 8.0 | 0.00 | 0.02 | 0.02 | 72 | 1011.3 |
| 20260503170427 | 53 | 180 | 3.0 | 5.0 | 0.00 | 0.02 | 0.02 | 76 | 1011.3 |
| 20260503150819 | 50 | 196 | 5.0 | 5.0 | 0.05 | 0.01 | 0.01 | 78 | 1013.3 |
| 20260503150315 | 51 | 186 | 0.0 | 8.0 | 0.02 | 0.00 | 0.00 | 75 | 1013.5 |
| 20260503140240 | 53 | 199 | 11.0 | 17.0 | 0.00 | 0.00 | 0.00 | 63 | 1013.0 |
| 20260503131209 | 51 | 198 | 10.0 | 10.0 | 0.00 | 0.00 | 0.00 | 66 | 1013.5 |
| 20260503130707 | 51 | 191 | 1.0 | 9.0 | 0.00 | 0.00 | 0.00 | 66 | 1013.3 |
| 20260503130204 | 51 | 194 | 4.0 | 8.0 | 0.00 | 0.00 | 0.00 | 67 | 1013.3 |
| 20260503120130 | 46 | 184 | 5.0 | 10.0 | 0.00 | 0.00 | 0.00 | 71 | 1013.1 |
| 20260503110557 | 45 | 201 | 3.0 | 7.0 | 0.00 | 0.00 | 0.00 | 71 | 1013.4 |
| 20260503090444 | 43 | 194 | 1.0 | 5.0 | 0.00 | 0.00 | 0.00 | 71 | 1013.7 |
| 20260503081410 | 42 | 186 | 1.0 | 4.0 | 0.00 | 0.00 | 0.00 | 72 | 1014.0 |
| 20260503080908 | 43 | 183 | 2.0 | 5.0 | 0.00 | 0.00 | 0.00 | 73 | 1013.7 |
| 20260503080404 | 43 | 183 | 2.0 | 3.0 | 0.00 | 0.00 | 0.00 | 72 | 1013.9 |
| 20260503072840 | 43 | 180 | 1.0 | 4.0 | 0.00 | 0.00 | 0.00 | 71 | 1013.8 |
| 20260503072337 | 43 | 171 | 2.0 | 6.0 | 0.00 | 0.00 | 0.00 | 70 | 1013.9 |
| 20260503071834 | 43 | 183 | 3.0 | 3.0 | 0.00 | 0.00 | 0.00 | 71 | 1013.6 |
| 20260503071331 | 44 | 197 | 2.0 | 3.0 | 0.00 | 0.00 | 0.00 | 70 | 1014.0 |
| 20260503070827 | 44 | 180 | 2.0 | 3.0 | 0.00 | 0.00 | 0.00 | 70 | 1013.9 |
| 20260503070326 | 43 | 184 | 2.0 | 2.0 | 0.00 | 0.00 | 0.00 | 69 | 1014.0 |